AO-07 1 07530U 74089B 24130.54005810 -.00000044 00000-0 16737-4 0 9993 2 07530 101.9779 124.8278 0012345 156.3926 333.8408 12.53675066264192 UO-11 1 14781U 84021B 24130.85924827 .00003310 00000-0 37979-3 0 9996 2 14781 97.7024 101.2937 0007562 191.4148 168.6897 14.86512682163797 AO-16 1 20439U 90005D 24130.75377182 .00000435 00000-0 17477-3 0 9993 2 20439 98.9005 134.8027 0010075 330.0376 205.6972 14.33354380792071 LO-19 1 20442U 90005G 24130.55604297 .00000350 00000-0 14355-3 0 9993 2 20442 98.8817 119.8114 0010713 302.2514 57.7631 14.33513625792245 AO-27 1 22825U 93061C 24130.43809662 .00000246 00000-0 11206-3 0 9991 2 22825 98.7915 182.8035 0008338 184.6139 175.4967 14.30476032597078 IO-26 1 22826U 93061D 24130.42697213 .00000270 00000-0 12030-3 0 9991 2 22826 98.7862 182.6551 0009169 170.4186 189.7173 14.30855229597356 FO-29 1 24278U 96046B 24130.52262418 .00000027 00000-0 66577-4 0 9992 2 24278 98.5788 70.2469 0349054 288.4659 67.8843 13.53186158369202 NOAA-15 1 25338U 98030A 24130.80145379 .00000501 00000-0 22543-3 0 9993 2 25338 98.5715 158.7254 0011529 79.2575 280.9903 14.26562047351965 GO-32 1 25397U 98043D 24130.59330108 .00000197 00000-0 10594-3 0 9998 2 25397 98.9192 96.7468 0000201 290.4420 69.6737 14.24032982341922 ISS 1 25544U 98067A 24130.87026782 .00016291 00000-0 28208-3 0 9992 2 25544 51.6382 145.3603 0003532 152.1189 269.4752 15.51061136452600 NO-44 1 26931U 01043C 24130.56269912 .00000435 00000-0 19578-3 0 9994 2 26931 67.0513 71.3346 0006543 281.9715 78.0653 14.31206508180424 SO-50 1 27607U 02058C 24130.85973014 .00002736 00000-0 38741-3 0 9998 2 27607 64.5549 339.3422 0029861 132.0728 228.2924 14.78778952150869 CO-55 1 27844U 03031E 24130.49500834 .00000664 00000-0 31272-3 0 9999 2 27844 98.6781 138.0641 0008485 255.1126 104.9113 14.23208741 82287 CO-57 1 27848U 03031J 24129.99203384 .00000446 00000-0 21877-3 0 9994 2 27848 98.6811 137.8347 0008359 275.0323 84.9900 14.22656961 81960 RS-22 1 27939U 03042A 24130.89871889 .00003082 00000-0 52475-3 0 9996 2 27939 98.2868 286.5072 0012286 175.8345 303.7270 14.69763664102653 NOAA-18 1 28654U 05018A 24130.83446470 .00000451 00000-0 26438-3 0 9991 2 28654 98.8745 208.1173 0014649 168.0611 192.0911 14.13193264977849 CO-58 1 28895U 05043F 24130.37918692 .00003314 00000-0 59281-3 0 9998 2 28895 98.1962 266.1695 0016932 119.0228 241.2675 14.67458081988767 CO-65 1 32785U 08021C 24130.43662329 .00007227 00000-0 64557-3 0 9999 2 32785 97.7521 96.1101 0013107 95.3789 264.8928 14.96151459869680 AAUSAT2 1 32788U 08021F 24130.44634816 .00025264 00000-0 13378-2 0 9998 2 32788 97.5931 110.6311 0003393 335.2580 24.8489 15.15397924872458 CO-66 1 32791U 08021J 24130.86532038 .00014703 00000-0 10986-2 0 9999 2 32791 97.6895 102.2790 0007267 80.1900 280.0146 15.02878482870842 RS-30 1 32953U 08025A 24130.76295063 .00000022 00000-0 85500-4 0 9991 2 32953 82.4990 113.3866 0019096 184.9050 175.1846 12.43140224724352 PRISM 1 33493U 09002B 24130.57026104 .00024549 00000-0 12317-2 0 9998 2 33493 98.2084 174.9140 0012206 28.3426 331.8467 15.17255115833185 NOAA-19 1 33591U 09005A 24130.78050270 .00000344 00000-0 20857-3 0 9990 2 33591 99.0498 186.1689 0014431 44.4320 315.8007 14.12991796786207 SRMSAT 1 37841U 11058D 24130.45636359 .00000594 00000-0 18015-3 0 9995 2 37841 19.9736 31.0325 0011794 29.3329 128.2391 14.11096353649080 HRBE 1 37855U 11061F 24130.36230790 .00184511 00000-0 15391-2 0 9998 2 37855 101.6887 291.4705 0044069 97.7024 262.9229 15.68179129686934 RS-40 1 38735U 12041C 24130.61102723 .00000080 00000-0 50807-3 0 9997 2 38735 82.4784 193.9281 0016036 304.3964 55.5598 12.42607489534382 ZACUBE-1 1 39417U 13066B 24130.88362707 .00008406 00000-0 88484-3 0 9994 2 39417 97.7322 87.7324 0049194 287.9906 71.5953 14.88735109565883 Delfi-N3xt 1 39428U 13066N 24130.20101552 .00006583 00000-0 85591-3 0 9991 2 39428 97.8401 49.5837 0100949 214.1910 145.2773 14.77450104560333 GOMX-1 1 39430U 13066Q 24130.84595829 .00005161 00000-0 86172-3 0 9995 2 39430 97.7372 7.5450 0141232 15.3881 345.1550 14.63885592557434 LO-74 1 39440U 13066AA 24130.58769836 .00007778 00000-0 92448-3 0 9997 2 39440 97.8121 75.1078 0071950 41.5307 319.1342 14.82823024562617 AO-73 1 39444U 13066AE 24130.84741849 .00010218 00000-0 10059-2 0 9994 2 39444 97.7180 90.7271 0046368 268.5403 91.0504 14.91453486564985 SPROUT 1 39770U 14029E 24130.85153115 .00135386 00000-0 38111-2 0 9993 2 39770 98.0100 279.7123 0008139 265.3301 94.7011 15.35889273541742 DTUSAT-2 1 40030U 14033W 24130.41130728 .00009137 00000-0 78413-3 0 9990 2 40030 98.0062 81.8519 0007333 287.2379 72.8039 14.97700512536896 EO-80 1 40032U 14033Y 24130.84885100 .00009840 00000-0 84267-3 0 9995 2 40032 98.0046 82.3135 0008410 287.1018 72.9282 14.97752983537459 HODOYOSHI-1 1 40299U 14070B 24130.82846557 .00033198 00000-0 68267-3 0 9997 2 40299 97.1418 191.4517 0008882 165.6068 194.5437 15.45861907529197 XW-2C 1 40906U 15049H 24130.82033829 .00037425 00000-0 93794-3 0 9999 2 40906 97.4805 146.6945 0010962 86.7962 273.4538 15.39901616478568 XW-2D 1 40907U 15049J 24130.81545217 .00048526 00000-0 98806-3 0 9991 2 40907 97.4747 148.8260 0009111 80.3745 279.8533 15.46069550478768 LILACSAT-2 1 40908U 15049K 24130.83380563 .00013459 00000-0 53323-3 0 9997 2 40908 97.5250 139.2867 0014422 121.5032 238.7617 15.25440639477645 XW-2B 1 40911U 15049N 24130.82447610 .00047445 00000-0 98726-3 0 9995 2 40911 97.4723 148.9861 0009266 81.7573 278.4726 15.45436765478630 IO-86 1 40931U 15052B 24125.75410535 .00001439 00000-0 10753-3 0 9990 2 40931 6.0007 303.0442 0013195 190.3596 169.6260 14.77790770465026 ChubuSat-2 1 41338U 16012B 24130.82702698 .00008968 00000-0 56581-3 0 9990 2 41338 31.0013 277.6261 0011144 210.4633 149.5357 15.07759064451806 ChubuSat-3 1 41339U 16012C 24130.82223952 .00008032 00000-0 51344-3 0 9996 2 41339 31.0080 275.9100 0011216 216.0215 143.9667 15.07241860451781 Horyu-4 1 41340U 16012D 24130.62021549 .00015473 00000-0 79540-3 0 9999 2 41340 31.0022 226.7731 0009358 300.3485 59.6229 15.15238807452293 Lapan A3 1 41603U 16040E 24130.85887522 .00005174 00000-0 21054-3 0 9992 2 41603 97.1436 146.3198 0010547 231.3153 128.7142 15.24877574437383 Pratham 1 41783U 16059A 24130.60553390 .00001422 00000-0 27308-3 0 9997 2 41783 97.8389 151.7531 0033602 141.0908 219.2724 14.64762814406896 CAS-2T 1 41847U 16066G 24130.21932069 .00001148 00000-0 17846-3 0 9998 2 41847 98.4617 201.8050 0353541 294.7995 61.6804 14.41096933393889 CAS-4B 1 42759U 17034B 24130.86030919 .00023068 00000-0 86896-3 0 9997 2 42759 43.0192 82.9454 0010868 94.9668 265.2424 15.26615778381549 CAS-4A 1 42761U 17034D 24130.86437521 .00021888 00000-0 82200-3 0 9993 2 42761 43.0209 81.2934 0009653 102.4526 257.7406 15.26754097381559 Aalto 1 1 42775U 17036L 24130.33070655 .00077281 00000-0 93347-3 0 9995 2 42775 97.1081 159.6630 0003119 14.4672 345.6675 15.60477214383031 URSA MAIOR 1 42776U 17036M 24130.80795483 .00184629 00000-0 12800-2 0 9990 2 42776 97.1027 163.7655 0000508 260.4661 99.6546 15.73922209383334 Max Valier Sat 1 42778U 17036P 24130.61717774 .00174031 00000-0 11961-2 0 9991 2 42778 97.0989 167.6788 0000679 115.6146 244.5189 15.74155862383484 D-SAT 1 42794U 17036AF 24130.52353834 .00007087 00000-0 50629-3 0 9993 2 42794 97.4951 113.8237 0107149 278.5802 80.3293 15.00216049374920 TechnoSat 1 42829U 17042E 24130.46669385 .00005635 00000-0 50368-3 0 9990 2 42829 97.3842 313.7179 0012113 196.9716 163.1102 14.96207916371389 AO-91 1 43017U 17073E 24130.58630814 .00013702 00000-0 85476-3 0 9994 2 43017 97.5831 7.4514 0214941 62.9622 299.3359 14.92383240349900 TianYi 2 1 43155U 18008A 24130.82204448 .00101179 00000-0 16402-2 0 9991 2 43155 97.2400 184.2467 0008747 200.5652 159.5250 15.52376322348930 Zhou Enlai 1 43156U 18008B 24130.85239893 .00161959 00000-0 19655-2 0 9992 2 43156 97.2433 185.7450 0007397 203.4468 156.6453 15.60037427348945 TianYi 6 1 43158U 18008D 24130.66997187 .00053469 00000-0 12196-2 0 9999 2 43158 97.2570 179.2704 0007487 210.3058 149.7757 15.42698757348524 S-Net D 1 43186U 18014G 24130.67364792 .00007394 00000-0 53839-3 0 9994 2 43186 97.5948 33.1968 0011707 131.7050 228.5180 15.04009340342718 S-Net B 1 43187U 18014H 24130.67574218 .00007473 00000-0 54411-3 0 9996 2 43187 97.5952 33.1456 0012574 128.0633 232.1729 15.04000819342717 S-Net A 1 43188U 18014J 24130.67483053 .00007392 00000-0 53816-3 0 9991 2 43188 97.5958 33.2545 0012453 128.4871 231.7473 15.04009398342710 S-Net C 1 43189U 18014K 24130.67792934 .00007571 00000-0 55092-3 0 9990 2 43189 97.5971 33.1973 0014284 122.4845 237.7763 15.04000456341262 Ten-Koh 1 43677U 18084G 24130.41123908 .00004592 00000-0 41779-3 0 9997 2 43677 98.0577 282.8250 0014867 143.7105 216.5126 14.95644251300927 PO-101 1 43678U 18084H 24130.79475362 .00003831 00000-0 35504-3 0 9997 2 43678 98.0680 287.6744 0009858 150.5092 209.6685 14.95072074301189 QO-100 1 43700U 18090A 24129.84632722 .00000143 00000-0 00000-0 0 9992 2 43700 0.0100 302.2802 0001290 136.2058 119.1220 1.00272220 19968 MinXSS-2 1 43758U 18099A 24130.69714265 .00013435 00000-0 87371-3 0 9999 2 43758 97.5567 193.6655 0018835 92.1230 268.2155 15.07961857296987 AO-95 1 43770U 18099N 24130.42241971 .00009895 00000-0 69996-3 0 9991 2 43770 97.5490 189.1094 0015823 131.4574 228.8015 15.04958578296738 RANGE-B 1 43772U 18099Q 24130.41097598 .00013424 00000-0 85934-3 0 9999 2 43772 97.5260 192.4477 0006090 57.1993 302.9821 15.08674667296874 RANGE-A 1 43773U 18099R 24130.66942148 .00006428 00000-0 49535-3 0 9990 2 43773 97.5070 185.1573 0017498 105.7902 254.5254 15.01836539296653 MOVE-II 1 43780U 18099Y 24130.71753101 .00022498 00000-0 12421-2 0 9991 2 43780 97.5236 194.1040 0008606 113.9729 246.2404 15.13910807297103 SNUSat 2 1 43782U 18099AA 24130.68202849 .00008751 00000-0 63174-3 0 9995 2 43782 97.5168 188.7215 0016937 77.6212 282.6908 15.04215255296782 SnugLite 1 43784U 18099AC 24130.66233692 .00009352 00000-0 65749-3 0 9993 2 43784 97.4967 188.0686 0006161 89.8814 270.3119 15.05286693296846 ITASat 1 1 43786U 18099AE 24130.40518777 .00007369 00000-0 54135-3 0 9990 2 43786 97.5123 188.7745 0019425 122.2605 238.0507 15.03575758296745 EAGLET 1 1 43790U 18099AJ 24130.61677337 .00006033 00000-0 45931-3 0 9997 2 43790 97.5330 189.4524 0017005 101.3440 258.9697 15.02332412296489 ESEO 1 43792U 18099AL 24130.70327835 .00004048 00000-0 33464-3 0 9996 2 43792 97.5198 186.6338 0015214 101.4250 258.8683 14.99388206296431 CSIM 1 43793U 18099AM 24130.43873858 .00019320 00000-0 10688-2 0 9999 2 43793 97.5312 195.5192 0014398 90.5854 269.7028 15.13813042296912 JO-97 1 43803U 18099AX 24130.12431224 .00011143 00000-0 75827-3 0 9996 2 43803 97.5220 189.6793 0011280 80.9528 279.2976 15.06421992296819 Suomi 100 1 43804U 18099AY 24130.62203166 .00010663 00000-0 73735-3 0 9996 2 43804 97.5304 189.9715 0017833 77.0647 283.2570 15.05760386296872 CHOMPTT 1 43855U 18104G 24130.65522056 .01382466 13904-2 12469-2 0 9993 2 43855 84.9974 297.1181 0006730 256.7633 103.2908 16.13029330301549 ISAT 1 43879U 18111D 24130.51141922 .00013009 00000-0 81719-3 0 9990 2 43879 97.6228 36.4230 0015193 126.1329 234.1309 15.09299081293581 UWE-4 1 43880U 18111E 24130.47451266 .00012148 00000-0 77974-3 0 9993 2 43880 97.6153 36.4996 0018446 135.6358 224.6352 15.08477395293598 Sparrow 1 43881U 18111F 24130.49527982 .00014540 00000-0 90156-3 0 9990 2 43881 97.6312 38.2356 0010872 161.8045 198.3575 15.09795557293649 AISat 1 1 44104U 19018AC 24130.81580065 .00183499 00000-0 82172-3 0 9992 2 44104 97.3619 239.1599 0015578 129.8952 230.3690 15.83516999286779 Prox-1 1 44339U 19036A 24130.32108049 .00013237 00000-0 23319-2 0 9995 2 44339 23.9991 115.2955 0008552 284.9173 75.0374 14.65821747259535 SONATE 1 44400U 19038Q 24130.50423227 .00022165 00000-0 71085-3 0 9998 2 44400 97.7121 122.9253 0014443 237.3731 122.6117 15.32254839268151 BeeSat 9 1 44412U 19038AC 24130.73943375 .00336211 00000-0 18279-2 0 9992 2 44412 97.6763 135.2562 0010720 167.7976 192.3552 15.79002024268735 JAISAT-1 1 44419U 19038F 24130.72545503 .00287685 00000-0 17614-2 0 9991 2 44419 97.6750 136.1841 0010118 165.9026 194.2523 15.76452181269106 Taurus 1 1 44530U 19059C 24130.86674433 .00010581 00000-0 24839-2 0 9994 2 44530 98.5721 250.0463 0013016 168.6018 191.5475 14.54588596246190 Duchifat 3 1 44854U 19089C 24130.78794454 .00022080 00000-0 11611-2 0 9994 2 44854 36.9580 281.9329 0006534 126.8425 233.2922 15.14911788242374 OPS-SAT 1 44878U 19092F 24130.53858633 .00482939 00000-0 18413-2 0 9997 2 44878 97.4350 335.2864 0002381 268.9354 91.1644 15.86348728244460 TO-108 1 44881U 19093C 24130.80200754 .00001787 00000-0 22279-3 0 9991 2 44881 97.8287 208.3263 0015849 89.0722 271.2308 14.83591547237357 FloripaSat 1 1 44885U 19093G 24130.80362048 .00007016 00000-0 73821-3 0 9990 2 44885 97.8406 213.6844 0013936 84.8762 275.4045 14.89638794237659 RS-44 1 44909U 19096E 24130.80340932 .00000042 00000-0 11576-3 0 9999 2 44909 82.5176 130.2817 0218230 140.7076 221.0093 12.79729522204111 BY70-2 1 45857U 20042B 24130.85054391 .00116706 00000-0 52690-2 0 9997 2 45857 97.9078 222.1603 0005312 298.9499 61.1202 15.20453202208701 UPMSat 2 1 46276U 20061E 24130.72507417 .00019682 00000-0 63080-3 0 9993 2 46276 97.2994 197.4537 0000798 157.6699 202.4578 15.32394467204288 AmicalSat 1 46287U 20061R 24130.67461733 .00035588 00000-0 10691-2 0 9991 2 46287 97.3516 197.9893 0001379 63.5803 296.5581 15.34335428203651 SALSAT 1 46495U 20068K 24130.44871217 .00008667 00000-0 50123-3 0 9999 2 46495 97.8144 88.7931 0016114 86.9313 273.3761 15.12414803198457 UVSQ-SAT 1 47438U 21006AB 24130.13646230 .00047535 00000-0 10618-2 0 9992 2 47438 97.3310 190.2060 0005021 2.2539 357.8730 15.43368626182703 YUSAT 1 1 47439U 21006AC 24130.82295086 .00132697 00000-0 17350-2 0 9992 2 47439 97.3256 194.6521 0003185 312.2542 47.8444 15.58179529183055 SOMP 2b 1 47445U 21006AJ 24130.13259965 .00042510 00000-0 10287-2 0 9995 2 47445 97.3265 188.6810 0005484 15.7631 344.3785 15.40984408182631 IDEASSat 1 47458U 21006AX 24130.43455815 .00037178 00000-0 96865-3 0 9995 2 47458 97.3370 189.6058 0005635 17.7455 342.3986 15.38757293182628 CubeSX-Sirius-HSE 1 47951U 21022V 24130.85120168 .00026106 00000-0 10828-2 0 9990 2 47951 97.4646 29.3520 0012299 273.1214 86.8615 15.23781116172737 CubeSX-HSE 1 47952U 21022W 24130.80737930 .00026519 00000-0 10964-2 0 9996 2 47952 97.4644 29.3930 0012301 272.4315 87.5514 15.23885667172731 KSU-Cubesat 1 47954U 21022Y 24130.66835317 .00029570 00000-0 11335-2 0 9993 2 47954 97.4657 30.4066 0011091 267.1198 92.8771 15.26409482172504 GRBAlpha 1 47959U 21022AD 24130.83982750 .00025746 00000-0 10615-2 0 9992 2 47959 97.4647 29.5684 0012046 272.2720 87.7138 15.23988344171563 Orbicraft-Zorkiy 1 47960U 21022AE 24130.88027270 .00028000 00000-0 10941-2 0 9994 2 47960 97.4687 30.7574 0011329 268.0645 91.9296 15.25778837172315 STECCO 1 47962U 21022AG 24130.81029301 .00108183 00000-0 19425-2 0 9993 2 47962 97.4655 38.7635 0005827 187.8936 172.2224 15.49482669172163 MO-110 1 47964U 21022AJ 24130.69583985 .00129365 00000-0 19910-2 0 9998 2 47964 97.4679 40.1648 0007144 185.6517 174.4657 15.53730647172236 TUBIN 1 48900U 21059X 24130.85075760 .00021053 00000-0 75692-3 0 9999 2 48900 97.6415 274.4197 0007100 212.4546 147.6257 15.28633583159068 LEDSAT 1 49069U 21073D 24130.71388297 .00019432 00000-0 81802-3 0 9997 2 49069 97.4393 202.1382 0020627 63.0309 297.3031 15.23212416150593 CUTE 1 49263U 21088D 24130.72540066 .00021167 00000-0 10426-2 0 9995 2 49263 97.4997 197.0098 0014684 207.4416 152.6043 15.17892388143801 TeikyoSat 4 1 49396U 21102B 24130.59706219 .00003503 00000-0 25665-3 0 9994 2 49396 97.4640 176.9078 0014697 53.1229 307.1342 15.04088591136955 Z-Sat 1 49399U 21102E 24130.85914233 .00007234 00000-0 47227-3 0 9996 2 49399 97.4345 178.6236 0021335 34.3689 325.8914 15.07951876137213 KOSEN 1 1 49402U 21102H 24130.64437819 .00007699 00000-0 46500-3 0 9996 2 49402 97.4264 179.7207 0019250 19.9669 340.2311 15.10810788137322 HO-113 1 50466U 21131B 24130.82978087 .00001332 00000-0 44075-3 0 9990 2 50466 98.5273 216.0811 0003329 228.4041 131.6862 14.39557609124489 Tevel-3 1 50988U 22002E 24130.82530529 .00127489 00000-0 18099-2 0 9990 2 50988 97.3808 205.0642 0004780 167.9545 192.1824 15.55969592129063 Tevel-8 1 50989U 22002F 24130.79882615 .00128669 00000-0 18370-2 0 9996 2 50989 97.3832 205.1271 0004900 168.9045 191.2319 15.55811053129056 Tevel-5 1 50998U 22002Q 24130.81909554 .00156434 00000-0 19034-2 0 9990 2 50998 97.3798 206.2170 0004640 166.9741 193.1636 15.60004142129141 Tevel-6 1 50999U 22002R 24130.82407105 .00154000 00000-0 18858-2 0 9997 2 50999 97.3792 206.1921 0004527 167.3055 192.8317 15.59843973129149 Tevel-1 1 51013U 22002AF 24130.78767339 .00125145 00000-0 17895-2 0 9996 2 51013 97.3797 204.8926 0004702 163.7555 196.3851 15.55781641129053 IRIS-A 1 51044U 22002BN 24130.42115303 .00021816 00000-0 75967-3 0 9994 2 51044 97.3869 197.1087 0007473 160.7617 199.3907 15.29666002128499 Tevel-7 1 51062U 22002CG 24130.78862570 .00124413 00000-0 17685-2 0 9997 2 51062 97.3815 205.0913 0004677 163.8442 196.2963 15.55946153129058 Tevel-4 1 51063U 22002CH 24130.82315622 .00126446 00000-0 18215-2 0 9992 2 51063 97.3820 205.0366 0004694 163.1628 196.9783 15.55575579129052 Tevel-2 1 51069U 22002CP 24130.82348816 .00128085 00000-0 18156-2 0 9994 2 51069 97.3804 205.0301 0004702 166.6187 193.5193 15.56009215129066 SO-115 1 51080U 22002DA 24130.46382933 .00418738 00000-0 19913-2 0 9994 2 51080 97.4057 213.6659 0007640 220.0084 140.0622 15.81782032129399 SO-114 1 51081U 22002DB 24130.48677574 .00538649 00000-0 20317-2 0 9999 2 51081 97.4058 214.0182 0007745 228.8858 131.1745 15.86418533129426 OreSat0 1 52017U 22026K 24130.55865256 .00068667 00000-0 13224-2 0 9996 2 52017 97.4974 143.2452 0011603 12.7762 347.3780 15.47572546119722 Planetum 1 1 52738U 22057G 24130.59765635 .00042682 00000-0 11520-2 0 9990 2 52738 97.5627 255.4626 0005245 273.6253 86.4392 15.37640058108636 Foresail-1 1 52766U 22057AL 24130.82955507 .00024452 00000-0 83958-3 0 9996 2 52766 97.5784 255.4962 0009181 262.2250 97.7948 15.30090013108587 SNUGLITE 2 1 52899U 22065F 24130.35351367 .00002039 00000-0 42842-3 0 9998 2 52899 98.1142 272.2669 0006494 273.9578 86.0880 14.60631128 98591 IO-117 1 53106U 22080B 24129.12370289 -.00000003 00000-0 00000+0 0 9990 2 53106 70.1412 206.4364 0007827 115.6229 244.5240 6.42557310 42692 SelfieSat 1 53951U 22057BC 24130.59391156 .00085309 00000-0 16151-2 0 9999 2 53951 97.5648 258.5294 0006990 259.7142 100.3320 15.48043571108807 FO-118 1 54684U 22167C 24130.85088046 .00034567 00000-0 12784-2 0 9993 2 54684 97.6016 274.8485 0010141 275.1953 84.8128 15.27572571 78441 SSS-2B 1 56184U 23054G 24130.67603019 .00037909 00000-0 10193-2 0 9994 2 56184 97.3738 28.4127 0005199 331.5238 28.5722 15.37783565 60211 CIRBE 1 56188U 23054L 24130.62228568 .00068871 00000-0 13743-2 0 9991 2 56188 97.3655 29.7060 0002821 323.2837 36.8219 15.46606861 60312 INSPIRE-Sat 7 1 56211U 23054AK 24130.72029443 .00070663 00000-0 13333-2 0 9997 2 56211 97.3705 30.9482 0004715 273.3808 86.6903 15.48215046 60398 RoseyCubesat 1 1 56212U 23054AL 24130.81514702 .00092849 00000-0 15719-2 0 9995 2 56212 97.3705 31.6097 0004255 261.5567 98.5203 15.51220317 60441 SO-120 1 56992U 23084BU 24130.59025344 .00034151 00000-0 13472-2 0 9993 2 56992 97.5282 249.6137 0014166 161.0096 199.1673 15.25385018 50299 MRC-100 1 56993U 23084BV 24130.28090237 .00036587 00000-0 13754-2 0 9991 2 56993 97.5282 249.5883 0013514 163.3966 196.7718 15.26980715 50271 UmKA 1 (RS40S) 1 57172U 23091G 24130.82849874 .00009124 00000-0 61248-3 0 9997 2 57172 97.6144 183.2700 0015767 250.0370 109.9160 15.06943432 47711 CubeBel-2 (EU11S) 1 57175U 23091K 24130.85991022 .00010499 00000-0 69552-3 0 9999 2 57175 97.6145 183.2174 0013665 261.9215 98.0463 15.07416669 47716 VERONIKA 1 58261U 23174F 24130.82460466 .00023608 00000-0 11154-2 0 9998 2 58261 97.4617 206.0049 0012097 23.9601 336.2194 15.19348964 27882 KAFASAT 1 58317U 23174BP 24130.78493053 .00027552 00000-0 12006-2 0 9992 2 58317 97.4563 206.3873 0010222 0.6139 359.5108 15.22115730 27912 ENSO 1 58470U 23185J 24130.82044404 .00020529 00000-0 90666-3 0 9997 2 58470 97.4285 197.9787 0013702 59.8606 300.3986 15.21679349 24301 EIRSAT-1 1 58472U 23185L 24130.80601935 .00022159 00000-0 96751-3 0 9997 2 58472 97.4279 197.9816 0013316 61.2509 299.0063 15.22059971 24303 SO-121 1 58567U 23174CY 24130.87365798 .00052141 00000-0 20544-2 0 9991 2 58567 97.4561 206.5943 0011008 6.7594 353.3790 15.25357954 27932 SONATE-2 1 59112U 24043Q 24130.34727316 .00012835 00000-0 64068-3 0 9990 2 59112 97.4742 254.6490 0016228 73.0296 287.2715 15.17514580 9917 KASHIWA 1 59508U 98067WH 24130.28788862 .00093411 00000-0 12847-2 0 9998 2 59508 51.6333 147.6051 0002966 98.4226 261.7102 15.56499126 4414 /EX
